N4DWK Weather Reports


Display with metric or nautical units.
time (UTC)temp
F
wind
direction
speed
MPH
gust
MPH
rain 1hr
in
rain 24hr
in
rain mn
in
humidity
%
barometer
mb
20260904051006 85 209 2.0 3.0 0.00 0.00 0.00 77 1013.6
20260904050505 85 229 1.0 3.0 0.00 0.00 0.00 77 1013.6
20260904050005 85 211 1.0 3.0 0.00 0.00 0.00 78 1013.8
20260904045505 85 211 1.0 3.0 0.00 0.00 0.00 78 1013.9
20260904045005 85 213 2.0 3.0 0.00 0.00 0.00 78 1013.8
20260904044505 85 217 2.0 3.0 0.00 0.00 0.00 78 1013.8
20260904044005 85 223 1.0 3.0 0.00 0.00 0.00 79 1013.8
20260904043505 84 227 1.0 3.0 0.00 0.00 0.00 79 1013.8
20260904043005 84 227 0.0 3.0 0.00 0.00 0.00 79 1013.8
20260904042505 84 227 2.0 3.0 0.00 0.00 0.00 80 1013.7
20260904042005 84 233 1.0 3.0 0.00 0.00 0.00 80 1013.8
20260904041504 84 261 1.0 3.0 0.00 0.00 0.00 81 1013.9
20260904041005 84 81 0.0 0.0 0.00 0.00 0.00 81 1013.9
20260904040505 84 81 0.0 0.0 0.00 0.00 0.00 80 1013.9
20260904040005 84 81 0.0 0.0 0.00 0.00 0.00 80 1013.9
20260904035504 84 81 0.0 0.0 0.00 0.00 0.00 80 1014.0
20260904035005 84 81 0.0 0.0 0.00 0.00 0.00 80 1013.9
20260904034505 84 81 0.0 0.0 0.00 0.00 0.00 80 1013.9
20260904034005 84 81 0.0 0.0 0.00 0.00 0.00 81 1014.0
20260904033505 84 81 0.0 0.0 0.00 0.00 0.00 81 1014.2
20260904033005 84 81 0.0 0.0 0.00 0.00 0.00 81 1014.3
20260904032505 84 81 0.0 1.0 0.00 0.00 0.00 82 1014.4
20260904032005 84 81 0.0 2.0 0.00 0.00 0.00 82 1014.2
20260904031505 84 81 1.0 2.0 0.00 0.00 0.00 82 1014.1
20260904031005 84 81 0.0 0.0 0.00 0.00 0.00 82 1014.1
20260904030504 84 81 0.0 1.0 0.00 0.00 0.00 83 1014.1
20260904030005 84 81 0.0 2.0 0.00 0.00 0.00 83 1014.1
20260904025505 84 81 0.0 2.0 0.00 0.00 0.00 83 1014.1
20260904025005 84 81 0.0 2.0 0.00 0.00 0.00 83 1014.0
20260904024504 84 81 1.0 2.0 0.00 0.00 0.00 83 1013.9
20260904024004 84 81 0.0 2.0 0.00 0.00 0.00 83 1014.1
20260904023505 84 81 0.0 3.0 0.00 0.00 0.00 83 1014.0
20260904023004 85 80 0.0 3.0 0.00 0.00 0.00 83 1014.0
20260904022505 85 80 0.0 2.0 0.00 0.00 0.00 83 1014.0
20260904022006 85 80 1.0 2.0 0.00 0.00 0.00 83 1014.0
20260904021506 85 80 0.0 1.0 0.00 0.00 0.00 83 1013.8
20260904021006 85 80 0.0 0.0 0.00 0.00 0.00 83 1013.9
20260904020505 85 80 0.0 0.0 0.00 0.00 0.00 83 1014.0
20260904020005 85 80 0.0 0.0 0.00 0.00 0.00 83 1014.0
20260904015505 85 80 0.0 0.0 0.00 0.00 0.00 82 1014.2
20260904015005 85 80 0.0 0.0 0.00 0.00 0.00 82 1014.3
20260904014505 85 80 0.0 0.0 0.00 0.00 0.00 82 1014.3
20260904014005 85 80 0.0 0.0 0.00 0.00 0.00 82 1014.3
20260904013505 85 80 0.0 0.0 0.00 0.00 0.00 82 1014.4
20260904013005 85 80 0.0 0.0 0.00 0.00 0.00 81 1014.3
20260904012505 85 80 0.0 0.0 0.00 0.00 0.00 81 1014.4
20260904012005 86 80 0.0 0.0 0.00 0.00 0.00 81 1014.5
20260904011505 86 80 0.0 0.0 0.00 0.00 0.00 81 1014.5
20260904011004 86 80 0.0 0.0 0.00 0.00 0.00 81 1014.5
20260904010506 86 80 0.0 0.0 0.00 0.00 0.00 81 1014.6
20260904010005 86 80 0.0 0.0 0.00 0.00 0.00 81 1014.6
20260904005504 86 80 0.0 0.0 0.00 0.00 0.00 81 1014.7
20260904005005 86 80 0.0 0.0 0.00 0.00 0.00 80 1014.7
20260904004504 86 80 0.0 0.0 0.00 0.00 0.00 80 1014.6
20260904004007 87 80 0.0 0.0 0.00 0.00 0.00 79 1014.5
20260904003505 87 80 0.0 0.0 0.00 0.00 0.00 79 1014.6
20260904003004 87 80 0.0 0.0 0.00 0.00 0.00 79 1014.6
20260904002504 87 80 0.0 0.0 0.00 0.00 0.00 78 1014.5
20260904002006 87 80 0.0 0.0 0.00 0.00 0.00 78 1014.3
20260904001504 88 80 0.0 0.0 0.00 0.00 0.00 77 1014.3
20260904001005 88 80 0.0 0.0 0.00 0.00 0.00 77 1014.3
20260904000505 88 80 0.0 0.0 0.00 0.00 0.00 77 1014.1
20260904000004 88 80 0.0 0.0 0.00 0.00 0.00 76 1014.0
20260903235506 88 80 0.0 0.0 0.00 0.00 0.00 76 1014.0
20260903235005 88 80 0.0 0.0 0.00 0.00 0.00 76 1013.8
20260903234504 88 80 0.0 0.0 0.00 0.00 0.00 75 1013.7
20260903234005 88 80 0.0 0.0 0.00 0.00 0.00 75 1013.8
20260903233504 88 80 0.0 1.0 0.00 0.00 0.00 75 1013.8
20260903233005 89 80 0.0 1.0 0.00 0.00 0.00 75 1013.7
20260903232505 89 207 0.0 0.0 0.00 0.00 0.00 74 1013.7
20260903232005 89 207 0.0 0.0 0.00 0.00 0.00 74 1013.7
20260903231505 89 207 0.0 0.0 0.00 0.00 0.00 74 1013.7
20260903231005 89 207 0.0 0.0 0.00 0.00 0.00 73 1013.6
20260903230504 89 207 0.0 0.0 0.00 0.00 0.00 74 1013.5
20260903230005 89 207 0.0 0.0 0.00 0.00 0.00 73 1013.4
20260903225505 89 207 0.0 0.0 0.00 0.00 0.00 72 1013.5
20260903225004 90 207 0.0 0.0 0.00 0.00 0.00 72 1013.5
20260903224505 90 207 0.0 0.0 0.00 0.00 0.00 72 1013.5
20260903224005 90 207 0.0 0.0 0.00 0.00 0.00 71 1013.4
20260903223504 91 207 0.0 0.0 0.00 0.00 0.00 70 1013.5
20260903223005 91 207 0.0 0.0 0.00 0.00 0.00 69 1013.5
20260903222505 91 207 0.0 0.0 0.00 0.00 0.00 68 1013.5
20260903222005 92 207 0.0 1.0 0.00 0.00 0.00 67 1013.4
20260903221504 92 207 0.0 1.0 0.00 0.00 0.00 65 1013.5
20260903221005 93 207 0.0 0.0 0.00 0.00 0.00 65 1013.5
20260903220504 94 207 0.0 0.0 0.00 0.00 0.00 64 1013.6
20260903220005 94 207 0.0 0.0 0.00 0.00 0.00 62 1013.7
20260903215504 95 207 0.0 0.0 0.00 0.00 0.00 61 1013.8
20260903215005 95 207 0.0 0.0 0.00 0.00 0.00 59 1013.7
20260903214504 95 207 0.0 0.0 0.00 0.00 0.00 58 1013.7
20260903214005 96 207 0.0 1.0 0.00 0.00 0.00 59 1013.8
20260903213505 96 207 0.0 3.0 0.00 0.00 0.00 57 1013.6
20260903213004 97 207 1.0 3.0 0.00 0.00 0.00 57 1013.6
20260903212504 97 207 0.0 3.0 0.00 0.00 0.00 57 1013.6
20260903212005 97 207 1.0 3.0 0.00 0.00 0.00 55 1013.6
20260903211504 98 199 2.0 3.0 0.00 0.00 0.00 55 1013.6
20260903211005 98 340 0.0 3.0 0.00 0.00 0.00 58 1013.8
20260903210504 98 340 0.0 3.0 0.00 0.00 0.00 57 1013.9
20260903210004 98 340 1.0 3.0 0.00 0.00 0.00 58 1013.9
20260903205505 97 235 1.0 3.0 0.00 0.00 0.00 54 1013.8
20260903205004 97 282 0.0 3.0 0.00 0.00 0.00 57 1013.9
20260903204504 97 229 2.0 3.0 0.00 0.00 0.00 56 1013.9
20260903204005 97 242 2.0 5.0 0.00 0.00 0.00 55 1014.0
20260903203504 98 228 2.0 5.0 0.00 0.00 0.00 54 1014.0
20260903203004 98 230 1.0 5.0 0.00 0.00 0.00 55 1014.0
20260903202504 97 237 2.0 5.0 0.00 0.00 0.00 55 1014.1
20260903202006 98 303 2.0 3.0 0.00 0.00 0.00 55 1014.1
20260903201504 99 326 1.0 3.0 0.00 0.00 0.00 56 1014.2
20260903201005 98 327 2.0 5.0 0.00 0.00 0.00 58 1014.3
20260903200504 97 5 2.0 5.0 0.00 0.00 0.00 60 1014.3
20260903200004 97 219 3.0 6.0 0.00 0.00 0.00 59 1014.5
20260903195504 98 225 3.0 6.0 0.00 0.00 0.00 56 1014.6
20260903195004 98 246 0.0 3.0 0.00 0.00 0.00 57 1014.6
20260903194505 97 246 2.0 3.0 0.00 0.00 0.00 57 1014.7
20260903194005 97 351 2.0 6.0 0.00 0.00 0.00 59 1014.7
20260903193506 97 355 1.0 8.0 0.00 0.00 0.00 58 1014.7
20260903193005 98 350 2.0 8.0 0.00 0.00 0.00 56 1014.8
20260903192504 99 25 3.0 6.0 0.00 0.00 0.00 58 1014.8
20260903192006 99 5 2.0 7.0 0.00 0.00 0.00 58 1014.9
20260903191505 98 5 1.0 7.0 0.00 0.00 0.00 58 1014.9
20260903191004 98 359 2.0 7.0 0.00 0.00 0.00 60 1015.0
20260903190505 98 256 1.0 5.0 0.00 0.00 0.00 61 1015.1
20260903190004 97 108 2.0 5.0 0.00 0.00 0.00 60 1015.1
20260903185504 98 300 1.0 3.0 0.00 0.00 0.00 57 1015.3
20260903185005 98 181 1.0 3.0 0.00 0.00 0.00 59 1015.3
20260903184504 97 229 2.0 3.0 0.00 0.00 0.00 58 1015.4
20260903184005 97 229 2.0 3.0 0.00 0.00 0.00 60 1015.4
20260903183504 98 224 2.0 3.0 0.00 0.00 0.00 60 1015.5
20260903183004 99 355 0.0 3.0 0.00 0.00 0.00 59 1015.6
20260903182504 97 355 1.0 3.0 0.00 0.00 0.00 61 1015.6
20260903182005 97 331 2.0 3.0 0.00 0.00 0.00 61 1015.7
20260903181504 97 238 2.0 3.0 0.00 0.00 0.00 62 1015.8
20260903181004 96 238 1.0 3.0 0.00 0.00 0.00 63 1015.8
20260903180504 97 236 1.0 3.0 0.00 0.00 0.00 63 1015.9
20260903180004 95 9 1.0 3.0 0.00 0.00 0.00 65 1016.1
20260903175504 96 0 1.0 3.0 0.00 0.00 0.00 63 1016.2
20260903175005 96 333 2.0 3.0 0.00 0.00 0.00 61 1016.1
20260903174504 96 300 1.0 3.0 0.00 0.00 0.00 62 1016.1
20260903174005 96 202 1.0 3.0 0.00 0.00 0.00 63 1016.1
20260903173504 95 357 1.0 3.0 0.00 0.00 0.00 65 1016.1
20260903173005 93 12 2.0 3.0 0.00 0.00 0.00 67 1016.2
20260903172504 93 10 1.0 6.0 0.00 0.00 0.00 67 1016.3
20260903172004 93 50 2.0 6.0 0.00 0.00 0.00 68 1016.3
20260903171505 93 355 2.0 6.0 0.00 0.00 0.00 68 1016.3
20260903171005 93 226 1.0 3.0 0.00 0.00 0.00 68 1016.3
20260903170504 93 287 2.0 6.0 0.00 0.00 0.00 70 1016.3
20260903170004 92 313 2.0 6.0 0.00 0.00 0.00 70 1016.4
20260903165504 91 11 3.0 6.0 0.00 0.00 0.00 70 1016.4
20260903165004 91 355 1.0 3.0 0.00 0.00 0.00 72 1016.5
20260903164504 90 355 0.0 3.0 0.00 0.00 0.00 73 1016.6
20260903164004 90 357 2.0 5.0 0.00 0.00 0.00 73 1016.6
20260903163504 89 355 2.0 5.0 0.00 0.00 0.00 74 1016.7
20260903163005 89 340 2.0 5.0 0.00 0.00 0.00 74 1016.7
20260903162504 89 128 1.0 3.0 0.00 0.00 0.00 74 1016.8
20260903162004 89 32 1.0 5.0 0.00 0.00 0.00 74 1016.9
20260903161504 89 5 2.0 5.0 0.00 0.00 0.00 75 1016.9
20260903161004 89 46 2.0 5.0 0.00 0.00 0.00 75 1016.9
20260903160504 88 90 2.0 5.0 0.00 0.00 0.00 75 1016.9
20260903160004 88 39 2.0 6.0 0.00 0.00 0.00 75 1017.0
20260903155503 88 7 3.0 6.0 0.00 0.00 0.00 75 1017.1
20260903155004 88 5 2.0 5.0 0.00 0.00 0.00 76 1017.0
20260903154504 88 32 3.0 5.0 0.00 0.00 0.00 79 1017.1
20260903154004 87 145 0.0 5.0 0.00 0.00 0.00 77 1017.0
20260903153506 87 23 0.0 5.0 0.00 0.00 0.00 79 1017.1
20260903153004 87 35 2.0 5.0 0.00 0.00 0.00 78 1017.1
20260903152504 87 30 2.0 3.0 0.00 0.00 0.00 79 1017.1
20260903152004 87 120 2.0 3.0 0.00 0.00 0.00 79 1017.1
20260903151504 86 127 1.0 8.0 0.00 0.00 0.00 79 1017.2
20260903151004 86 0 2.0 8.0 0.00 0.00 0.00 78 1017.1
20260903150503 86 107 2.0 6.0 0.00 0.00 0.00 78 1017.2
20260903150005 86 46 1.0 7.0 0.00 0.00 0.00 78 1017.1
20260903145503 86 350 2.0 7.0 0.00 0.00 0.00 78 1017.1
20260903145004 86 5 2.0 7.0 0.00 0.00 0.00 78 1017.1
20260903144504 86 21 3.0 7.0 0.00 0.00 0.00 78 1016.9
20260903144004 86 38 1.0 6.0 0.00 0.00 0.00 79 1016.9
20260903143503 85 354 2.0 6.0 0.00 0.00 0.00 78 1016.8
20260903143005 85 31 2.0 5.0 0.00 0.00 0.00 80 1016.8
20260903142505 85 14 0.0 6.0 0.00 0.00 0.00 80 1016.6
20260903142004 85 356 3.0 6.0 0.00 0.00 0.00 80 1016.8
20260903141504 84 218 2.0 5.0 0.00 0.00 0.00 79 1016.6
20260903141004 84 225 3.0 5.0 0.00 0.00 0.00 79 1016.5
20260903140504 84 280 0.0 3.0 0.00 0.00 0.00 80 1016.5
20260903140004 84 238 1.0 5.0 0.00 0.00 0.00 80 1016.5
20260903135505 84 222 1.0 5.0 0.00 0.00 0.00 80 1016.5
20260903135004 83 223 3.0 5.0 0.00 0.00 0.00 81 1016.5
20260903134505 83 246 1.0 3.0 0.00 0.00 0.00 82 1016.5
20260903134004 83 245 2.0 3.0 0.00 0.00 0.00 83 1016.5
20260903133507 83 247 2.0 3.0 0.00 0.00 0.00 83 1016.6
20260903133007 82 256 1.0 3.0 0.00 0.00 0.00 84 1016.6
20260903132507 82 342 1.0 3.0 0.00 0.00 0.00 85 1016.7
20260903132007 81 225 1.0 3.0 0.00 0.00 0.00 85 1016.8
20260903131509 81 225 2.0 3.0 0.00 0.00 0.00 85 1016.8
20260903131007 80 225 0.0 3.0 0.00 0.00 0.00 86 1016.8
20260903130507 80 225 1.0 3.0 0.00 0.00 0.00 88 1016.9
20260903130007 80 225 0.0 2.0 0.00 0.00 0.00 90 1016.9
20260903125507 79 225 1.0 2.0 0.00 0.00 0.00 90 1017.1
20260903125007 79 224 0.0 2.0 0.00 0.00 0.00 92 1017.1
20260903124507 78 224 1.0 2.0 0.00 0.00 0.00 92 1017.1
20260903124008 78 224 0.0 2.0 0.00 0.00 0.00 93 1017.2
20260903123507 77 224 1.0 2.0 0.00 0.00 0.00 94 1017.1
20260903123008 77 22 0.0 1.0 0.00 0.00 0.00 95 1017.0
20260903122507 77 22 0.0 1.0 0.00 0.00 0.00 95 1017.0
20260903122007 77 102 0.0 0.0 0.00 0.00 0.00 95 1017.1
20260903121507 77 102 0.0 0.0 0.00 0.00 0.00 95 1017.1
20260903121007 77 102 0.0 0.0 0.00 0.00 0.00 95 1017.1
20260903120507 76 102 0.0 0.0 0.00 0.00 0.00 95 1017.1
20260903120008 76 102 0.0 0.0 0.00 0.00 0.00 95 1017.0
20260903115509 76 102 0.0 0.0 0.00 0.00 0.00 95 1017.1
20260903115008 76 79 0.0 0.0 0.00 0.00 0.00 95 1017.0
20260903114507 76 79 0.0 0.0 0.00 0.00 0.00 95 1016.9
20260903114007 76 79 0.0 0.0 0.00 0.00 0.00 95 1016.9
20260903113507 75 79 0.0 0.0 0.00 0.00 0.00 95 1016.9
20260903113007 75 79 0.0 0.0 0.00 0.00 0.00 95 1016.8
20260903112507 75 79 0.0 0.0 0.00 0.00 0.00 95 1016.7
20260903112007 75 79 0.0 0.0 0.00 0.00 0.00 95 1016.7
20260903111507 75 79 0.0 0.0 0.00 0.00 0.00 95 1016.6
20260903111008 75 79 0.0 0.0 0.00 0.00 0.00 95 1016.6
20260903110507 75 79 0.0 0.0 0.00 0.00 0.00 95 1016.5
20260903110007 75 79 0.0 0.0 0.00 0.00 0.00 95 1016.5
20260903105507 75 79 0.0 0.0 0.00 0.00 0.00 95 1016.4
20260903105007 75 79 0.0 0.0 0.00 0.00 0.00 95 1016.4
20260903104507 75 79 0.0 0.0 0.00 0.00 0.00 95 1016.4
20260903104007 75 79 0.0 0.0 0.00 0.00 0.00 95 1016.5
20260903103506 75 79 0.0 0.0 0.00 0.00 0.00 95 1016.5
20260903103008 75 79 0.0 0.0 0.00 0.00 0.00 95 1016.5
20260903102507 75 79 0.0 0.0 0.00 0.00 0.00 95 1016.4
20260903102007 75 79 0.0 0.0 0.00 0.00 0.00 95 1016.5
20260903101507 76 79 0.0 0.0 0.00 0.00 0.00 95 1016.5
20260903101007 76 79 0.0 0.0 0.00 0.00 0.00 95 1016.5
20260903100507 76 79 0.0 0.0 0.00 0.00 0.00 95 1016.3
20260903100007 76 79 0.0 0.0 0.00 0.00 0.00 95 1016.2
20260903095507 76 79 0.0 0.0 0.00 0.00 0.00 95 1016.3
20260903095006 76 79 0.0 0.0 0.00 0.00 0.00 95 1016.4
20260903094508 76 79 0.0 0.0 0.00 0.00 0.00 95 1016.5
20260903094008 76 79 0.0 0.0 0.00 0.00 0.00 95 1016.4
20260903093507 76 79 0.0 0.0 0.00 0.00 0.00 95 1016.4
20260903093007 76 79 0.0 0.0 0.00 0.00 0.00 95 1016.4
20260903092507 76 79 0.0 0.0 0.00 0.00 0.00 95 1016.4
20260903092007 76 79 0.0 0.0 0.00 0.00 0.00 95 1016.3
20260903091507 76 79 0.0 0.0 0.00 0.00 0.00 95 1016.2
20260903091007 76 79 0.0 0.0 0.00 0.00 0.00 95 1016.1
20260903090506 76 79 0.0 0.0 0.00 0.00 0.00 95 1016.1
20260903090007 76 79 0.0 0.0 0.00 0.00 0.00 95 1016.0
20260903085506 76 79 0.0 0.0 0.00 0.00 0.00 95 1015.9
20260903085007 76 79 0.0 0.0 0.00 0.00 0.00 95 1015.9
20260903084506 76 79 0.0 0.0 0.00 0.00 0.00 95 1016.0
20260903084007 76 79 0.0 0.0 0.00 0.00 0.00 95 1016.0
20260903083506 76 79 0.0 0.0 0.00 0.00 0.00 95 1016.0
20260903083006 76 79 0.0 0.0 0.00 0.00 0.00 95 1015.8
20260903082508 76 79 0.0 0.0 0.00 0.00 0.00 95 1015.8
20260903082006 76 79 0.0 0.0 0.00 0.00 0.00 95 1015.9
20260903081507 76 79 0.0 0.0 0.00 0.00 0.00 95 1016.0
20260903081007 76 79 0.0 0.0 0.00 0.00 0.00 94 1016.1
20260903080507 76 79 0.0 0.0 0.00 0.00 0.00 94 1016.1
20260903080007 76 79 0.0 0.0 0.00 0.00 0.00 94 1016.2
20260903075507 76 79 0.0 0.0 0.00 0.00 0.00 94 1016.1
20260903075007 76 79 0.0 0.0 0.00 0.00 0.00 94 1016.1
20260903074507 76 79 0.0 0.0 0.00 0.00 0.00 94 1016.2
20260903074008 76 79 0.0 0.0 0.00 0.00 0.00 94 1016.2
20260903073507 76 79 0.0 0.0 0.00 0.00 0.00 94 1016.2
20260903073006 77 79 0.0 0.0 0.00 0.00 0.00 94 1016.1
20260903072507 77 79 0.0 0.0 0.00 0.00 0.00 94 1016.2
20260903072006 77 79 0.0 0.0 0.00 0.00 0.00 94 1016.2
20260903071506 77 79 0.0 0.0 0.00 0.00 0.00 94 1016.3
20260903071007 77 79 0.0 0.0 0.00 0.00 0.00 94 1016.4
20260903070507 77 79 0.0 0.0 0.00 0.00 0.00 94 1016.3
20260903070007 77 79 0.0 0.0 0.00 0.00 0.00 94 1016.4
20260903065507 77 79 0.0 0.0 0.00 0.00 0.00 94 1016.4
20260903065006 77 79 0.0 0.0 0.00 0.00 0.00 94 1016.3
20260903064506 77 79 0.0 0.0 0.00 0.00 0.00 94 1016.3
20260903064007 77 79 0.0 0.0 0.00 0.00 0.00 93 1016.3
20260903063506 77 79 0.0 0.0 0.00 0.00 0.00 93 1016.4
20260903063006 77 79 0.0 0.0 0.00 0.00 0.00 93 1016.5
20260903062506 77 79 0.0 0.0 0.00 0.00 0.00 93 1016.5
20260903062008 77 79 0.0 0.0 0.00 0.00 0.00 93 1016.4
20260903061507 77 79 0.0 0.0 0.00 0.00 0.00 93 1016.5
20260903061007 77 79 0.0 0.0 0.00 0.00 0.00 93 1016.5
20260903060507 78 79 0.0 0.0 0.00 0.00 0.00 93 1016.4
20260903060006 78 79 0.0 0.0 0.00 0.00 0.00 93 1016.4
20260903055507 78 79 0.0 0.0 0.00 0.00 0.00 93 1016.5
20260903055006 78 79 0.0 0.0 0.00 0.00 0.00 93 1016.7
20260903054507 78 79 0.0 0.0 0.00 0.00 0.00 93 1016.7
20260903054007 78 79 0.0 0.0 0.00 0.00 0.00 93 1016.7
20260903053507 78 79 0.0 0.0 0.00 0.00 0.00 93 1016.7
20260903053006 78 79 0.0 0.0 0.00 0.00 0.00 93 1016.8
20260903052507 78 79 0.0 2.0 0.00 0.00 0.00 93 1016.9
20260903052007 78 79 0.0 3.0 0.00 0.00 0.00 93 1016.9
20260903051507 78 128 0.0 3.0 0.00 0.00 0.00 93 1016.9